Date String (YYYY-MM-DD hh:mm:ss) UTC,Instrument flags,Ambient pressure (hPa),Sample flow (lpm),Bypass flow (lpm),Sample temperature (°C),Ambient temperature (°C),ASC tube jacket temperature (°C),LED temperature (°C),Box temperature (°C),Sample RH (%),Span deviation,Mass concentration (μg/m³),Mass concentration (μg/m³),Mass concentration (μg/m³)
DateTimeUTC,F1_M11,P_M11,Q1_M11,Q2_M11,T1_M11,T2_M11,T3_M11,T4_M11,T5_M11,U1_M11,ZSPAN_M11,X2_M11,X0_M11,X1_M11
2023-05-15 03:00:00,,0843.4,5.01,0.00,29.8,28.2,00.0,38.3,31.4,27.6,0000.0,0001.31,0001.94,0001.11
2023-05-15 03:01:00,,0843.4,5.00,0.00,29.8,28.1,00.0,38.3,31.4,27.6,0000.0,0001.31,0001.93,0001.12
2023-05-15 03:02:00,,0843.4,4.98,0.00,29.8,28.1,00.0,38.3,31.4,27.6,0000.0,0001.30,0001.91,0001.12
2023-05-15 03:03:00,,0843.4,5.01,0.00,29.8,28.1,00.0,38.3,31.4,27.6,0000.0,0001.30,0001.86,0001.13
2023-05-15 03:04:00,,0843.5,5.01,0.00,29.8,28.1,00.0,38.3,31.3,27.6,0000.0,0001.30,0001.84,0001.14
2023-05-15 03:05:00,,0843.5,4.99,0.00,29.8,28.1,00.0,38.3,31.3,27.6,0000.0,0001.30,0001.83,0001.13
2023-05-15 03:06:00,,0843.5,5.00,0.00,29.8,28.1,00.0,38.3,31.3,27.7,0000.0,0001.31,0001.81,0001.14
2023-05-15 03:07:00,,0843.5,5.02,0.00,29.8,28.1,00.0,38.3,31.3,27.7,0000.0,0001.29,0001.69,0001.13
2023-05-15 03:08:00,,0843.5,4.99,0.00,29.8,28.1,00.0,38.2,31.3,27.7,0000.0,0001.29,0001.67,0001.13
2023-05-15 03:09:00,,0843.6,4.99,0.00,29.8,28.1,00.0,38.2,31.3,27.7,0000.0,0001.25,0001.60,0001.12
2023-05-15 03:10:00,,0843.6,5.00,0.00,29.8,28.1,00.0,38.2,31.3,27.7,0000.0,0001.24,0001.59,0001.10
2023-05-15 03:11:00,,0843.6,5.00,0.00,29.8,28.1,00.0,38.2,31.3,27.7,0000.0,0001.22,0001.48,0001.09
2023-05-15 03:12:00,,0843.5,5.00,0.00,29.8,28.1,00.0,38.2,31.3,27.6,0000.0,0001.23,0001.51,0001.08
2023-05-15 03:13:00,,0843.6,5.00,0.00,29.8,28.1,00.0,38.2,31.3,27.6,0000.0,0001.22,0001.54,0001.06
2023-05-15 03:14:00,,0843.6,4.98,0.00,29.8,28.0,00.0,38.2,31.3,27.6,0000.0,0001.21,0001.55,0001.04
2023-05-15 03:15:00,,0843.6,5.00,0.00,29.8,28.0,00.0,38.2,31.3,27.6,0000.0,0001.18,0001.53,0001.01
2023-05-15 03:16:00,,0843.6,5.01,0.00,29.8,28.0,00.0,38.2,31.3,27.6,0000.0,0001.16,0001.52,0000.99
2023-05-15 03:17:00,,0843.6,4.99,0.00,29.8,28.0,00.0,38.2,31.3,27.6,0000.0,0001.13,0001.52,0000.96
2023-05-15 03:18:00,,0843.6,5.00,0.00,29.8,28.0,00.0,38.2,31.3,27.6,0000.0,0001.11,0001.48,0000.95
2023-05-15 03:19:00,,0843.6,5.01,0.00,29.8,28.0,00.0,38.2,31.3,27.5,0000.0,0001.08,0001.45,0000.93
2023-05-15 03:20:00,,0843.6,5.01,0.00,29.8,28.1,00.0,38.2,31.3,27.5,0000.0,0001.07,0001.46,0000.92
2023-05-15 03:21:00,,0843.7,4.98,0.00,29.8,28.1,00.0,38.2,31.3,27.6,0000.0,0001.05,0001.40,0000.91
2023-05-15 03:22:00,,0843.7,5.00,0.00,29.7,28.1,00.0,38.2,31.3,27.6,0000.0,0001.06,0001.43,0000.91
2023-05-15 03:23:00,,0843.6,5.00,0.00,29.7,28.1,00.0,38.2,31.3,27.6,0000.0,0001.07,0001.44,0000.92
2023-05-15 03:24:00,,0843.6,4.99,0.00,29.7,28.1,00.0,38.2,31.3,27.5,0000.0,0001.10,0001.46,0000.95
2023-05-15 03:25:00,,0843.7,5.00,0.00,29.7,28.0,00.0,38.2,31.3,27.5,0000.0,0001.11,0001.45,0000.98
2023-05-15 03:26:00,,0843.6,5.01,0.00,29.7,28.0,00.0,38.2,31.3,27.6,0000.0,0001.14,0001.52,0001.01
2023-05-15 03:27:00,,0843.7,5.01,0.00,29.7,28.0,00.0,38.2,31.3,27.5,0000.0,0001.16,0001.59,0001.03
2023-05-15 03:28:00,,0843.6,5.00,0.00,29.7,28.0,00.0,38.2,31.2,27.4,0000.0,0001.18,0001.62,0001.05
2023-05-15 03:29:00,,0843.7,5.00,0.00,29.7,28.0,00.0,38.1,31.2,27.4,0000.0,0001.18,0001.63,0001.05
2023-05-15 03:30:00,,0843.7,4.99,0.00,29.7,28.0,00.0,38.1,31.2,27.3,0000.0,0001.16,0001.61,0001.03
2023-05-15 03:31:00,,0843.8,5.00,0.00,29.7,28.0,00.0,38.1,31.2,27.3,0000.0,0001.14,0001.58,0001.01
2023-05-15 03:32:00,,0843.8,5.02,0.00,29.7,28.0,00.0,38.1,31.2,27.3,0000.0,0001.14,0001.58,0001.00
2023-05-15 03:33:00,,0843.8,4.98,0.00,29.7,28.0,00.0,38.1,31.2,27.3,0000.0,0001.08,0001.46,0000.97
2023-05-15 03:34:00,,0843.9,5.00,0.00,29.7,28.0,00.0,38.1,31.2,27.3,0000.0,0001.04,0001.39,0000.95
2023-05-15 03:35:00,,0843.9,5.02,0.00,29.7,28.0,00.0,38.1,31.2,27.3,0000.0,0001.01,0001.48,0000.91
2023-05-15 03:36:00,,0843.9,4.99,0.00,29.7,28.0,00.0,38.1,31.2,27.3,0000.0,0000.99,0001.50,0000.87
2023-05-15 03:37:00,,0843.9,4.99,0.00,29.7,28.0,00.0,38.1,31.2,27.3,0000.0,0000.96,0001.48,0000.84
2023-05-15 03:38:00,,0843.9,5.01,0.00,29.7,28.0,00.0,38.1,31.2,27.3,0000.0,0000.94,0001.45,0000.81
2023-05-15 03:39:00,,0843.9,5.00,0.00,29.7,28.0,00.0,38.1,31.2,27.3,0000.0,0000.90,0001.36,0000.79
2023-05-15 03:40:00,,0844.0,4.99,0.00,29.7,27.9,00.0,38.1,31.2,27.3,0000.0,0000.89,0001.35,0000.77
2023-05-15 03:41:00,,0843.9,5.01,0.00,29.7,27.9,00.0,38.1,31.2,27.4,0000.0,0000.90,0001.38,0000.78
2023-05-15 03:42:00,,0843.9,5.00,0.00,29.7,28.0,00.0,38.1,31.1,27.4,0000.0,0000.90,0001.42,0000.78
2023-05-15 03:43:00,,0843.9,5.00,0.00,29.6,28.0,00.0,38.1,31.1,27.4,0000.0,0000.90,0001.40,0000.78
2023-05-15 03:44:00,,0843.9,4.99,0.00,29.6,28.0,00.0,38.1,31.1,27.4,0000.0,0000.91,0001.50,0000.78
2023-05-15 03:45:00,,0843.9,4.99,0.00,29.6,28.0,00.0,38.1,31.1,27.3,0000.0,0000.93,0002.20,0000.78
2023-05-15 03:46:00,,0843.9,5.01,0.00,29.6,27.9,00.0,38.1,31.1,27.2,0000.0,0000.90,0002.13,0000.76
2023-05-15 03:47:00,,0843.9,5.00,0.00,29.6,27.9,00.0,38.1,31.1,27.3,0000.0,0000.86,0002.03,0000.74
2023-05-15 03:48:00,,0843.9,5.00,0.00,29.6,27.9,00.0,38.0,31.1,27.2,0000.0,0000.82,0001.94,0000.71
2023-05-15 03:49:00,,0843.9,5.00,0.00,29.6,27.8,00.0,38.0,31.1,27.1,0000.0,0000.78,0001.87,0000.67
2023-05-15 03:50:00,,0843.9,4.99,0.00,29.6,27.8,00.0,38.0,31.1,27.1,0000.0,0000.76,0001.85,0000.64
2023-05-15 03:51:00,,0843.9,4.99,0.00,29.5,27.8,00.0,38.0,31.0,27.0,0000.0,0000.71,0001.79,0000.60
2023-05-15 03:52:00,,0843.9,5.00,0.00,29.5,27.8,00.0,38.0,31.0,27.0,0000.0,0000.68,0001.75,0000.56
2023-05-15 03:53:00,,0843.9,5.00,0.00,29.5,27.7,00.0,38.0,31.0,27.0,0000.0,0000.63,0001.69,0000.52
2023-05-15 03:54:00,,0843.9,5.00,0.00,29.5,27.7,00.0,38.0,31.0,27.0,0000.0,0000.60,0001.66,0000.47
2023-05-15 03:55:00,,0843.9,5.00,0.00,29.5,27.7,00.0,38.0,31.0,27.0,0000.0,0000.54,0001.52,0000.42
2023-05-15 03:56:00,,0843.9,5.00,0.00,29.5,27.7,00.0,38.0,30.9,27.0,0000.0,0000.50,0000.86,0000.39
2023-05-15 03:57:00,,0843.9,5.01,0.00,29.4,27.7,00.0,38.0,30.9,27.1,0000.0,0000.51,0000.84,0000.37
2023-05-15 03:58:00,,0844.0,4.99,0.00,29.4,27.7,00.0,37.9,30.9,27.1,0000.0,0000.49,0000.82,0000.35
2023-05-15 03:59:00,,0844.1,5.01,0.00,29.4,27.7,00.0,37.9,30.9,27.1,0000.0,0000.49,0000.84,0000.34
